Wetterdaten: Montag, 26.10.2020
Datum Zeit Temp. Auen Feucht Auen Luftdruck Regen Richtung Richtung Windben
26.10.2020 00:00 7,6 C 93 % 1007,7 hPa 0,0 mm S-SO 155 3,2 km/h (1 Bft)
26.10.2020 00:05 7,6 C 93 % 1007,6 hPa 0,0 mm S-SO 155 4,8 km/h (1 Bft)
26.10.2020 00:10 7,6 C 93 % 1007,6 hPa 0,0 mm S-SO 155 4,8 km/h (1 Bft)
26.10.2020 00:15 7,6 C 93 % 1007,4 hPa 0,0 mm S-SO 155 4,8 km/h (1 Bft)
26.10.2020 00:20 7,6 C 93 % 1007,2 hPa 0,0 mm S-SO 155 4,8 km/h (1 Bft)
26.10.2020 00:25 7,6 C 93 % 1007,2 hPa 0,0 mm S-SO 155 4,8 km/h (1 Bft)
26.10.2020 00:30 7,6 C 93 % 1007,0 hPa 0,0 mm S-SO 155 4,8 km/h (1 Bft)
26.10.2020 00:35 7,6 C 93 % 1006,8 hPa 0,0 mm SO 130 6,4 km/h (2 Bft)
26.10.2020 00:40 7,6 C 93 % 1006,8 hPa 0,0 mm O-SO 108 6,4 km/h (2 Bft)
26.10.2020 00:45 7,6 C 93 % 1006,8 hPa 0,0 mm O 96 6,4 km/h (2 Bft)
26.10.2020 00:50 7,6 C 93 % 1006,7 hPa 0,0 mm O 96 8,0 km/h (2 Bft)
26.10.2020 00:55 7,6 C 93 % 1006,7 hPa 0,0 mm O 97 4,8 km/h (1 Bft)
26.10.2020 01:00 7,6 C 93 % 1006,5 hPa 0,0 mm O-SO 120 4,8 km/h (1 Bft)
26.10.2020 01:05 7,5 C 93 % 1006,5 hPa 0,0 mm O-SO 120 3,2 km/h (1 Bft)
26.10.2020 01:10 7,5 C 93 % 1006,4 hPa 0,0 mm O-SO 120 4,8 km/h (1 Bft)
26.10.2020 01:15 7,4 C 93 % 1006,4 hPa 0,0 mm SO 143 4,8 km/h (1 Bft)
26.10.2020 01:20 7,4 C 94 % 1006,3 hPa 0,0 mm S-SO 166 4,8 km/h (1 Bft)
26.10.2020 01:25 7,3 C 94 % 1006,4 hPa 0,0 mm S-SO 166 3,2 km/h (1 Bft)
26.10.2020 01:30 7,3 C 94 % 1006,3 hPa 0,0 mm S-SO 166 0,0 km/h (0 Bft)
26.10.2020 01:35 7,3 C 93 % 1006,1 hPa 0,0 mm S-SO 166 1,6 km/h (1 Bft)
26.10.2020 01:40 7,3 C 93 % 1006,2 hPa 0,0 mm S-SO 166 0,0 km/h (0 Bft)
26.10.2020 01:45 7,2 C 93 % 1006,2 hPa 0,0 mm S-SO 166 0,0 km/h (0 Bft)
26.10.2020 01:50 7,2 C 93 % 1006,1 hPa 0,0 mm S-SO 166 0,0 km/h (0 Bft)
26.10.2020 01:55 7,2 C 93 % 1006,2 hPa 0,0 mm S-SO 166 0,0 km/h (0 Bft)
26.10.2020 02:00 7,2 C 93 % 1006,0 hPa 0,0 mm S-SO 166 0,0 km/h (0 Bft)
26.10.2020 02:05 7,2 C 93 % 1005,9 hPa 0,0 mm S-SO 166 0,0 km/h (0 Bft)
26.10.2020 02:10 7,2 C 93 % 1005,9 hPa 0,0 mm S-SO 166 1,6 km/h (1 Bft)
26.10.2020 02:15 7,2 C 94 % 1005,7 hPa 0,0 mm S-SO 166 1,6 km/h (1 Bft)
26.10.2020 02:20 7,1 C 94 % 1005,6 hPa 0,0 mm S-SO 166 4,8 km/h (1 Bft)
26.10.2020 02:25 7,1 C 94 % 1005,4 hPa 0,0 mm O-NO 76 4,8 km/h (1 Bft)
26.10.2020 02:30 7,1 C 94 % 1005,3 hPa 0,0 mm O-NO 76 4,8 km/h (1 Bft)
26.10.2020 02:35 7,0 C 94 % 1005,3 hPa 0,0 mm O 93 4,8 km/h (1 Bft)
26.10.2020 02:40 6,9 C 93 % 1005,2 hPa 0,0 mm O-NO 69 6,4 km/h (2 Bft)
26.10.2020 02:45 6,9 C 93 % 1005,1 hPa 0,0 mm O-NO 65 6,4 km/h (2 Bft)
26.10.2020 02:50 6,8 C 93 % 1004,9 hPa 0,0 mm O-NO 65 4,8 km/h (1 Bft)
26.10.2020 02:55 6,8 C 94 % 1004,8 hPa 0,0 mm SO 126 6,4 km/h (2 Bft)
26.10.2020 03:00 6,8 C 94 % 1004,7 hPa 0,0 mm O 101 4,8 km/h (1 Bft)
26.10.2020 03:05 6,8 C 94 % 1004,6 hPa 0,0 mm O-SO 103 4,8 km/h (1 Bft)
26.10.2020 03:10 6,8 C 94 % 1004,5 hPa 0,0 mm O 84 4,8 km/h (1 Bft)
26.10.2020 03:15 6,9 C 94 % 1004,6 hPa 0,0 mm O 92 4,8 km/h (1 Bft)
26.10.2020 03:20 6,9 C 94 % 1004,5 hPa 0,0 mm O 94 4,8 km/h (1 Bft)
26.10.2020 03:25 7,0 C 94 % 1004,4 hPa 0,0 mm O 94 0,0 km/h (0 Bft)
26.10.2020 03:30 7,0 C 94 % 1004,3 hPa 0,0 mm O 94 3,2 km/h (1 Bft)
26.10.2020 03:35 7,0 C 94 % 1004,1 hPa 0,0 mm O-SO 114 3,2 km/h (1 Bft)
26.10.2020 03:40 7,1 C 94 % 1004,0 hPa 0,0 mm O-SO 115 4,8 km/h (1 Bft)
26.10.2020 03:45 7,1 C 94 % 1004,1 hPa 0,0 mm O-SO 115 3,2 km/h (1 Bft)
26.10.2020 03:50 7,0 C 94 % 1004,3 hPa 0,0 mm O-SO 115 0,0 km/h (0 Bft)
26.10.2020 03:55 7,0 C 94 % 1004,1 hPa 0,0 mm O-SO 115 0,0 km/h (0 Bft)
26.10.2020 04:00 6,9 C 93 % 1004,2 hPa 0,0 mm O-SO 115 0,0 km/h (0 Bft)
26.10.2020 04:05 6,9 C 94 % 1004,0 hPa 0,0 mm O-SO 115 0,0 km/h (0 Bft)
26.10.2020 04:10 6,9 C 94 % 1004,1 hPa 0,0 mm O-SO 115 0,0 km/h (0 Bft)
26.10.2020 04:15 6,9 C 94 % 1004,2 hPa 0,0 mm O-SO 115 0,0 km/h (0 Bft)
26.10.2020 04:20 6,9 C 94 % 1004,2 hPa 0,0 mm O-SO 115 0,0 km/h (0 Bft)
26.10.2020 04:25 6,9 C 94 % 1004,2 hPa 0,0 mm O-SO 115 0,0 km/h (0 Bft)
26.10.2020 04:30 6,9 C 94 % 1004,3 hPa 0,0 mm O-SO 115 1,6 km/h (1 Bft)
26.10.2020 04:35 6,8 C 94 % 1004,1 hPa 0,0 mm O-SO 115 0,0 km/h (0 Bft)
26.10.2020 04:40 6,8 C 94 % 1004,0 hPa 0,0 mm O-SO 115 0,0 km/h (0 Bft)
26.10.2020 04:45 6,8 C 94 % 1004,0 hPa 0,0 mm O-SO 115 3,2 km/h (1 Bft)
26.10.2020 04:50 6,8 C 94 % 1004,0 hPa 0,0 mm O-SO 115 3,2 km/h (1 Bft)
26.10.2020 04:55 6,8 C 94 % 1004,1 hPa 0,0 mm O-SO 115 3,2 km/h (1 Bft)
26.10.2020 05:00 6,7 C 94 % 1004,1 hPa 0,0 mm O-SO 115 4,8 km/h (1 Bft)
26.10.2020 05:05 6,7 C 94 % 1004,1 hPa 0,0 mm O-SO 115 4,8 km/h (1 Bft)
26.10.2020 05:10 6,6 C 94 % 1004,2 hPa 0,0 mm O-SO 115 0,0 km/h (0 Bft)
26.10.2020 05:15 6,6 C 94 % 1004,0 hPa 0,0 mm O-SO 115 4,8 km/h (1 Bft)
26.10.2020 05:20 6,4 C 94 % 1003,8 hPa 0,0 mm O-SO 115 4,8 km/h (1 Bft)
26.10.2020 05:25 6,4 C 94 % 1003,6 hPa 0,0 mm O-SO 115 4,8 km/h (1 Bft)
26.10.2020 05:30 6,3 C 94 % 1003,6 hPa 0,0 mm O-SO 115 6,4 km/h (2 Bft)
26.10.2020 05:35 6,4 C 94 % 1003,6 hPa 0,0 mm O-SO 115 4,8 km/h (1 Bft)
26.10.2020 05:40 6,4 C 94 % 1003,6 hPa 0,0 mm O-SO 115 3,2 km/h (1 Bft)
26.10.2020 05:45 6,4 C 94 % 1003,5 hPa 0,0 mm O-SO 115 1,6 km/h (1 Bft)
26.10.2020 05:50 6,4 C 94 % 1003,6 hPa 0,0 mm O-SO 115 1,6 km/h (1 Bft)
26.10.2020 05:55 6,5 C 94 % 1003,5 hPa 0,2 mm SO 135 6,4 km/h (2 Bft)
26.10.2020 06:00 6,6 C 94 % 1003,7 hPa 0,0 mm SO 135 3,2 km/h (1 Bft)
26.10.2020 06:05 6,7 C 94 % 1003,6 hPa 0,0 mm O-SO 121 6,4 km/h (2 Bft)
26.10.2020 06:10 6,8 C 94 % 1003,6 hPa 0,0 mm O-SO 112 6,4 km/h (2 Bft)
26.10.2020 06:15 6,9 C 94 % 1003,5 hPa 0,0 mm O-SO 107 8,0 km/h (2 Bft)
26.10.2020 06:20 7,1 C 94 % 1003,6 hPa 0,0 mm O-SO 108 4,8 km/h (1 Bft)
26.10.2020 06:25 7,1 C 94 % 1003,6 hPa 0,0 mm SO 139 6,4 km/h (2 Bft)
26.10.2020 06:30 7,2 C 94 % 1003,7 hPa 0,0 mm S-SO 159 6,4 km/h (2 Bft)
26.10.2020 06:35 7,2 C 94 % 1003,6 hPa 0,0 mm O 85 9,7 km/h (2 Bft)
26.10.2020 06:40 7,2 C 94 % 1003,5 hPa 0,0 mm O-SO 105 9,7 km/h (2 Bft)
26.10.2020 06:45 7,3 C 94 % 1003,5 hPa 0,0 mm O-SO 103 4,8 km/h (1 Bft)
26.10.2020 06:50 7,3 C 94 % 1003,5 hPa 0,0 mm O 90 8,0 km/h (2 Bft)
26.10.2020 06:55 7,3 C 94 % 1003,5 hPa 0,0 mm O 90 4,8 km/h (1 Bft)
26.10.2020 07:00 7,2 C 94 % 1003,4 hPa 0,0 mm O 90 8,0 km/h (2 Bft)
26.10.2020 07:05 7,3 C 94 % 1003,4 hPa 0,0 mm O 85 11,3 km/h (2 Bft)
26.10.2020 07:10 7,3 C 94 % 1003,2 hPa 0,0 mm O 87 11,3 km/h (2 Bft)
26.10.2020 07:15 7,3 C 94 % 1003,0 hPa 0,0 mm O 82 12,9 km/h (3 Bft)
26.10.2020 07:20 7,3 C 94 % 1002,9 hPa 0,0 mm O-NO 61 11,3 km/h (2 Bft)
26.10.2020 07:25 7,2 C 94 % 1002,9 hPa 0,0 mm O-NO 76 14,5 km/h (3 Bft)
26.10.2020 07:30 7,2 C 94 % 1002,9 hPa 0,0 mm O-NO 78 14,5 km/h (3 Bft)
26.10.2020 07:35 7,2 C 94 % 1002,8 hPa 0,0 mm O 79 11,3 km/h (2 Bft)
26.10.2020 07:40 7,2 C 94 % 1002,8 hPa 0,0 mm O-NO 75 12,9 km/h (3 Bft)
26.10.2020 07:45 7,3 C 94 % 1002,9 hPa 0,0 mm NO 51 11,3 km/h (2 Bft)
26.10.2020 07:50 7,3 C 94 % 1003,0 hPa 0,0 mm O-NO 59 12,9 km/h (3 Bft)
26.10.2020 07:55 7,3 C 94 % 1002,9 hPa 0,0 mm O-NO 73 12,9 km/h (3 Bft)
26.10.2020 08:00 7,3 C 94 % 1002,9 hPa 0,0 mm O 90 12,9 km/h (3 Bft)
26.10.2020 08:05 7,4 C 94 % 1002,8 hPa 0,0 mm O 83 14,5 km/h (3 Bft)
26.10.2020 08:10 7,5 C 94 % 1002,8 hPa 0,0 mm O 84 12,9 km/h (3 Bft)
26.10.2020 08:15 7,5 C 94 % 1002,7 hPa 0,0 mm O-NO 74 14,5 km/h (3 Bft)
26.10.2020 08:20 7,6 C 94 % 1002,7 hPa 0,0 mm O-SO 115 12,9 km/h (3 Bft)
26.10.2020 08:25 7,6 C 94 % 1002,8 hPa 0,0 mm O 94 14,5 km/h (3 Bft)
26.10.2020 08:30 7,6 C 94 % 1002,7 hPa 0,0 mm O-SO 108 11,3 km/h (2 Bft)
26.10.2020 08:35 7,6 C 94 % 1002,7 hPa 0,0 mm O 81 12,9 km/h (3 Bft)
26.10.2020 08:40 7,6 C 94 % 1002,6 hPa 0,0 mm O 90 12,9 km/h (3 Bft)
26.10.2020 08:45 7,6 C 94 % 1002,5 hPa 0,0 mm O 89 11,3 km/h (2 Bft)
26.10.2020 08:50 7,6 C 94 % 1002,7 hPa 0,0 mm O 89 11,3 km/h (2 Bft)
26.10.2020 08:55 7,5 C 94 % 1002,7 hPa 0,0 mm O-NO 72 9,7 km/h (2 Bft)
26.10.2020 09:00 7,6 C 94 % 1002,7 hPa 0,0 mm O 80 12,9 km/h (3 Bft)
26.10.2020 09:05 7,6 C 94 % 1002,9 hPa 0,0 mm O-NO 77 11,3 km/h (2 Bft)
26.10.2020 09:10 7,7 C 94 % 1002,8 hPa 0,0 mm O 90 9,7 km/h (2 Bft)
26.10.2020 09:15 7,9 C 94 % 1002,9 hPa 0,0 mm O-SO 117 8,0 km/h (2 Bft)
26.10.2020 09:20 8,2 C 94 % 1002,9 hPa 0,0 mm O-SO 109 8,0 km/h (2 Bft)
26.10.2020 09:25 8,6 C 94 % 1002,7 hPa 0,0 mm O-SO 113 9,7 km/h (2 Bft)
26.10.2020 09:30 8,7 C 94 % 1002,7 hPa 0,0 mm O 97 12,9 km/h (3 Bft)
26.10.2020 09:35 8,6 C 94 % 1002,7 hPa 0,0 mm O 82 12,9 km/h (3 Bft)
26.10.2020 09:40 8,5 C 94 % 1002,7 hPa 0,0 mm O 89 14,5 km/h (3 Bft)
26.10.2020 09:45 8,3 C 93 % 1002,7 hPa 0,0 mm O 87 11,3 km/h (2 Bft)
26.10.2020 09:50 8,6 C 94 % 1002,7 hPa 0,0 mm SO 146 11,3 km/h (2 Bft)
26.10.2020 09:55 9,1 C 93 % 1002,6 hPa 0,0 mm O-SO 115 11,3 km/h (2 Bft)
26.10.2020 10:00 9,1 C 93 % 1002,6 hPa 0,0 mm SO 141 8,0 km/h (2 Bft)
26.10.2020 10:05 9,3 C 93 % 1002,6 hPa 0,0 mm SO 132 9,7 km/h (2 Bft)
26.10.2020 10:10 9,7 C 93 % 1002,7 hPa 0,0 mm S-SO 161 11,3 km/h (2 Bft)
26.10.2020 10:15 9,8 C 93 % 1002,6 hPa 0,0 mm O-SO 114 9,7 km/h (2 Bft)
26.10.2020 10:20 9,8 C 93 % 1002,7 hPa 0,0 mm SO 146 11,3 km/h (2 Bft)
26.10.2020 10:25 10,3 C 93 % 1002,9 hPa 0,0 mm S-SO 155 9,7 km/h (2 Bft)
26.10.2020 10:30 10,8 C 92 % 1003,1 hPa 0,0 mm W 269 6,4 km/h (2 Bft)
26.10.2020 10:35 11,2 C 92 % 1003,3 hPa 0,0 mm W 277 9,7 km/h (2 Bft)
26.10.2020 10:40 11,4 C 91 % 1003,5 hPa 0,0 mm W 271 24,1 km/h (4 Bft)
26.10.2020 10:45 10,9 C 90 % 1003,6 hPa 0,0 mm W 278 29,0 km/h (5 Bft)
26.10.2020 10:50 10,5 C 90 % 1003,9 hPa 0,0 mm W-NW 283 19,3 km/h (3 Bft)
26.10.2020 10:55 10,2 C 90 % 1004,1 hPa 0,0 mm W 279 22,5 km/h (4 Bft)
26.10.2020 11:00 10,4 C 89 % 1004,1 hPa 0,0 mm W-SW 250 25,7 km/h (4 Bft)
26.10.2020 11:05 10,1 C 89 % 1004,3 hPa 0,0 mm W-SW 245 30,6 km/h (5 Bft)
26.10.2020 11:10 10,1 C 89 % 1004,2 hPa 0,0 mm W-NW 294 24,1 km/h (4 Bft)
26.10.2020 11:15 9,9 C 89 % 1004,4 hPa 0,0 mm W-NW 285 25,7 km/h (4 Bft)
26.10.2020 11:20 9,8 C 89 % 1004,5 hPa 0,0 mm W-NW 284 22,5 km/h (4 Bft)
26.10.2020 11:25 9,9 C 89 % 1004,5 hPa 0,0 mm W 277 19,3 km/h (3 Bft)
26.10.2020 11:30 9,9 C 89 % 1004,5 hPa 0,0 mm W 265 14,5 km/h (3 Bft)
26.10.2020 11:35 9,9 C 89 % 1004,5 hPa 0,0 mm W-SW 258 17,7 km/h (3 Bft)
26.10.2020 11:40 9,9 C 89 % 1004,6 hPa 0,0 mm W 269 22,5 km/h (4 Bft)
26.10.2020 11:45 10,0 C 89 % 1004,5 hPa 0,0 mm W 259 17,7 km/h (3 Bft)
26.10.2020 11:50 10,0 C 89 % 1004,5 hPa 0,0 mm W 260 16,1 km/h (3 Bft)
26.10.2020 11:55 9,9 C 89 % 1004,5 hPa 0,0 mm W 269 22,5 km/h (4 Bft)
26.10.2020 12:00 9,9 C 89 % 1004,4 hPa 0,0 mm W 259 20,9 km/h (4 Bft)
26.10.2020 12:05 9,9 C 89 % 1004,6 hPa 0,0 mm W 270 17,7 km/h (3 Bft)
26.10.2020 12:10 9,9 C 89 % 1004,8 hPa 0,0 mm W-NW 282 20,9 km/h (4 Bft)
26.10.2020 12:15 9,9 C 89 % 1004,7 hPa 0,0 mm W-SW 258 20,9 km/h (4 Bft)
26.10.2020 12:20 9,9 C 88 % 1004,7 hPa 0,0 mm W 262 22,5 km/h (4 Bft)
26.10.2020 12:25 9,9 C 89 % 1004,8 hPa 0,0 mm W 266 20,9 km/h (4 Bft)
26.10.2020 12:30 9,9 C 89 % 1004,8 hPa 0,0 mm W 266 17,7 km/h (3 Bft)
26.10.2020 12:35 9,9 C 89 % 1004,9 hPa 0,0 mm W 261 19,3 km/h (3 Bft)
26.10.2020 12:40 9,8 C 89 % 1005,0 hPa 0,0 mm W 269 16,1 km/h (3 Bft)
26.10.2020 12:45 9,8 C 89 % 1005,3 hPa 0,0 mm W 260 19,3 km/h (3 Bft)
26.10.2020 12:50 9,9 C 89 % 1005,3 hPa 0,0 mm W-NW 282 17,7 km/h (3 Bft)
26.10.2020 12:55 9,8 C 89 % 1005,3 hPa 0,0 mm W-SW 244 20,9 km/h (4 Bft)
26.10.2020 13:00 9,8 C 89 % 1005,1 hPa 0,0 mm W 266 20,9 km/h (4 Bft)
26.10.2020 13:05 9,8 C 89 % 1005,2 hPa 0,0 mm W 267 16,1 km/h (3 Bft)
26.10.2020 13:10 9,9 C 89 % 1005,2 hPa 0,0 mm W-SW 256 17,7 km/h (3 Bft)
26.10.2020 13:15 9,9 C 89 % 1005,2 hPa 0,0 mm W-SW 244 14,5 km/h (3 Bft)
26.10.2020 13:20 10,0 C 89 % 1005,3 hPa 0,0 mm W 266 16,1 km/h (3 Bft)
26.10.2020 13:25 9,9 C 89 % 1005,3 hPa 0,0 mm SW 227 19,3 km/h (3 Bft)
26.10.2020 13:30 10,0 C 89 % 1005,4 hPa 0,0 mm W 266 17,7 km/h (3 Bft)
26.10.2020 13:35 10,0 C 89 % 1005,7 hPa 0,0 mm W-NW 284 17,7 km/h (3 Bft)
26.10.2020 13:40 9,9 C 89 % 1005,5 hPa 0,0 mm W 265 20,9 km/h (4 Bft)
26.10.2020 13:45 9,9 C 89 % 1005,7 hPa 0,0 mm W 268 17,7 km/h (3 Bft)
26.10.2020 13:50 9,9 C 89 % 1005,8 hPa 0,0 mm W 273 19,3 km/h (3 Bft)
26.10.2020 13:55 9,8 C 88 % 1005,9 hPa 0,0 mm W 269 14,5 km/h (3 Bft)
26.10.2020 14:00 9,8 C 88 % 1006,2 hPa 0,0 mm W 268 19,3 km/h (3 Bft)
26.10.2020 14:05 9,7 C 88 % 1006,3 hPa 0,0 mm W-SW 258 17,7 km/h (3 Bft)
26.10.2020 14:10 9,7 C 88 % 1006,3 hPa 0,0 mm W-NW 289 17,7 km/h (3 Bft)
26.10.2020 14:15 9,7 C 88 % 1006,3 hPa 0,0 mm W-SW 254 16,1 km/h (3 Bft)
26.10.2020 14:20 9,6 C 89 % 1006,3 hPa 0,0 mm W 265 20,9 km/h (4 Bft)
26.10.2020 14:25 9,6 C 89 % 1006,5 hPa 0,0 mm W 263 14,5 km/h (3 Bft)
26.10.2020 14:30 9,6 C 89 % 1006,5 hPa 0,0 mm W 263 16,1 km/h (3 Bft)
26.10.2020 14:35 9,6 C 89 % 1006,6 hPa 0,0 mm W-SW 257 11,3 km/h (2 Bft)
26.10.2020 14:40 9,5 C 89 % 1006,6 hPa 0,0 mm W 260 8,0 km/h (2 Bft)
26.10.2020 14:45 9,5 C 89 % 1006,7 hPa 0,0 mm W 261 8,0 km/h (2 Bft)
26.10.2020 14:50 9,5 C 89 % 1006,6 hPa 0,0 mm W 264 9,7 km/h (2 Bft)
26.10.2020 14:55 9,4 C 90 % 1006,7 hPa 0,0 mm W-SW 256 9,7 km/h (2 Bft)
26.10.2020 15:00 9,4 C 90 % 1006,6 hPa 0,0 mm W 259 9,7 km/h (2 Bft)
26.10.2020 15:05 9,4 C 90 % 1006,6 hPa 0,0 mm W 260 9,7 km/h (2 Bft)
26.10.2020 15:10 9,4 C 90 % 1006,9 hPa 0,0 mm W 273 8,0 km/h (2 Bft)
26.10.2020 15:15 9,4 C 90 % 1007,1 hPa 0,0 mm W-NW 284 8,0 km/h (2 Bft)
26.10.2020 15:20 9,4 C 90 % 1007,3 hPa 0,0 mm W-NW 282 6,4 km/h (2 Bft)
26.10.2020 15:25 9,3 C 90 % 1007,3 hPa 0,0 mm W-NW 285 6,4 km/h (2 Bft)
26.10.2020 15:30 9,4 C 90 % 1007,3 hPa 0,0 mm W-SW 250 12,9 km/h (3 Bft)
26.10.2020 15:35 9,3 C 90 % 1007,5 hPa 0,0 mm W 259 9,7 km/h (2 Bft)
26.10.2020 15:40 9,3 C 90 % 1007,4 hPa 0,2 mm W 267 14,5 km/h (3 Bft)
26.10.2020 15:45 9,4 C 90 % 1007,5 hPa 0,0 mm W-SW 246 11,3 km/h (2 Bft)
26.10.2020 15:50 9,3 C 91 % 1007,6 hPa 0,0 mm W-SW 252 14,5 km/h (3 Bft)
26.10.2020 15:55 9,3 C 91 % 1007,5 hPa 0,0 mm W-NW 290 8,0 km/h (2 Bft)
26.10.2020 16:00 9,3 C 91 % 1007,5 hPa 0,0 mm W-SW 257 11,3 km/h (2 Bft)
26.10.2020 16:05 9,3 C 91 % 1007,4 hPa 0,0 mm W-SW 256 11,3 km/h (2 Bft)
26.10.2020 16:10 9,3 C 91 % 1007,4 hPa 0,0 mm W 263 12,9 km/h (3 Bft)
26.10.2020 16:15 9,3 C 91 % 1007,5 hPa 0,2 mm W 269 19,3 km/h (3 Bft)
26.10.2020 16:20 9,3 C 91 % 1007,7 hPa 0,0 mm W-NW 290 11,3 km/h (2 Bft)
26.10.2020 16:25 9,2 C 91 % 1007,6 hPa 0,0 mm W 272 14,5 km/h (3 Bft)
26.10.2020 16:30 9,2 C 91 % 1007,6 hPa 0,0 mm W 281 9,7 km/h (2 Bft)
26.10.2020 16:35 9,2 C 91 % 1007,8 hPa 0,0 mm W 274 9,7 km/h (2 Bft)
26.10.2020 16:40 9,2 C 91 % 1007,7 hPa 0,0 mm W-NW 286 8,0 km/h (2 Bft)
26.10.2020 16:45 9,1 C 91 % 1007,7 hPa 0,0 mm W 265 9,7 km/h (2 Bft)
26.10.2020 16:50 9,1 C 91 % 1007,8 hPa 0,0 mm W-NW 287 14,5 km/h (3 Bft)
26.10.2020 16:55 9,1 C 91 % 1007,8 hPa 0,0 mm W 266 11,3 km/h (2 Bft)
26.10.2020 17:00 9,0 C 91 % 1007,8 hPa 0,2 mm W-NW 293 20,9 km/h (4 Bft)
26.10.2020 17:05 8,9 C 91 % 1007,9 hPa 0,0 mm W-NW 286 17,7 km/h (3 Bft)
26.10.2020 17:10 8,8 C 91 % 1007,9 hPa 0,0 mm W-NW 283 17,7 km/h (3 Bft)
26.10.2020 17:15 8,7 C 91 % 1008,0 hPa 0,0 mm W 264 19,3 km/h (3 Bft)
26.10.2020 17:20 8,5 C 91 % 1008,0 hPa 0,2 mm W-SW 251 19,3 km/h (3 Bft)
26.10.2020 17:25 8,4 C 91 % 1008,2 hPa 0,0 mm W-NW 289 16,1 km/h (3 Bft)
26.10.2020 17:30 8,3 C 91 % 1008,3 hPa 0,0 mm W 272 20,9 km/h (4 Bft)
26.10.2020 17:35 8,2 C 91 % 1008,4 hPa 0,0 mm W-SW 250 19,3 km/h (3 Bft)
26.10.2020 17:40 8,1 C 91 % 1008,5 hPa 0,0 mm W 273 17,7 km/h (3 Bft)
26.10.2020 17:45 8,1 C 91 % 1008,4 hPa 0,0 mm W 279 16,1 km/h (3 Bft)
26.10.2020 17:50 8,1 C 92 % 1008,5 hPa 0,2 mm W 268 12,9 km/h (3 Bft)
26.10.2020 17:55 8,0 C 92 % 1008,5 hPa 0,0 mm W 271 11,3 km/h (2 Bft)
26.10.2020 18:00 8,0 C 92 % 1008,6 hPa 0,0 mm W 271 12,9 km/h (3 Bft)
26.10.2020 18:05 7,9 C 92 % 1008,7 hPa 0,0 mm W-NW 284 9,7 km/h (2 Bft)
26.10.2020 18:10 7,9 C 92 % 1008,7 hPa 0,2 mm W-SW 254 16,1 km/h (3 Bft)
26.10.2020 18:15 7,8 C 92 % 1008,9 hPa 0,0 mm W 268 19,3 km/h (3 Bft)
26.10.2020 18:20 7,7 C 92 % 1008,9 hPa 0,0 mm W-NW 296 19,3 km/h (3 Bft)
26.10.2020 18:25 7,7 C 92 % 1009,0 hPa 0,0 mm W 279 14,5 km/h (3 Bft)
26.10.2020 18:30 7,5 C 92 % 1009,1 hPa 0,0 mm W 260 16,1 km/h (3 Bft)
26.10.2020 18:35 7,4 C 92 % 1009,3 hPa 0,0 mm W 268 16,1 km/h (3 Bft)
26.10.2020 18:40 7,3 C 92 % 1009,2 hPa 0,0 mm W 272 19,3 km/h (3 Bft)
26.10.2020 18:45 7,3 C 92 % 1009,3 hPa 0,0 mm W 279 14,5 km/h (3 Bft)
26.10.2020 18:50 7,3 C 92 % 1009,4 hPa 0,2 mm W-SW 248 11,3 km/h (2 Bft)
26.10.2020 18:55 7,2 C 92 % 1009,5 hPa 0,0 mm W 277 11,3 km/h (2 Bft)
26.10.2020 19:00 7,2 C 92 % 1009,4 hPa 0,0 mm W-SW 256 11,3 km/h (2 Bft)
26.10.2020 19:05 7,2 C 92 % 1009,5 hPa 0,0 mm W 264 9,7 km/h (2 Bft)
26.10.2020 19:10 7,2 C 92 % 1009,5 hPa 0,2 mm W 272 12,9 km/h (3 Bft)
26.10.2020 19:15 7,1 C 92 % 1009,4 hPa 0,0 mm W 276 9,7 km/h (2 Bft)
26.10.2020 19:20 7,1 C 92 % 1009,4 hPa 0,0 mm W 269 8,0 km/h (2 Bft)
26.10.2020 19:25 7,1 C 92 % 1009,2 hPa 0,2 mm W 266 9,7 km/h (2 Bft)
26.10.2020 19:30 7,1 C 92 % 1009,2 hPa 0,0 mm W 281 12,9 km/h (3 Bft)
26.10.2020 19:35 7,0 C 92 % 1009,3 hPa 0,2 mm W 269 9,7 km/h (2 Bft)
26.10.2020 19:40 6,9 C 92 % 1009,4 hPa 0,0 mm W-NW 290 8,0 km/h (2 Bft)
26.10.2020 19:45 6,9 C 92 % 1009,4 hPa 0,0 mm W 268 9,7 km/h (2 Bft)
26.10.2020 19:50 6,9 C 92 % 1009,5 hPa 0,0 mm W 279 9,7 km/h (2 Bft)
26.10.2020 19:55 6,8 C 92 % 1009,6 hPa 0,2 mm W-NW 285 17,7 km/h (3 Bft)
26.10.2020 20:00 6,8 C 92 % 1009,6 hPa 0,0 mm W 267 16,1 km/h (3 Bft)
26.10.2020 20:05 6,7 C 92 % 1009,7 hPa 0,0 mm W 280 14,5 km/h (3 Bft)
26.10.2020 20:10 6,6 C 92 % 1009,8 hPa 0,0 mm W-SW 258 16,1 km/h (3 Bft)
26.10.2020 20:15 6,5 C 92 % 1010,0 hPa 0,2 mm W 270 14,5 km/h (3 Bft)
26.10.2020 20:20 6,4 C 92 % 1010,1 hPa 0,0 mm W 263 14,5 km/h (3 Bft)
26.10.2020 20:25 6,3 C 92 % 1010,1 hPa 0,0 mm W 279 14,5 km/h (3 Bft)
26.10.2020 20:30 6,3 C 92 % 1010,1 hPa 0,2 mm W-NW 286 12,9 km/h (3 Bft)
26.10.2020 20:35 6,2 C 92 % 1010,1 hPa 0,0 mm W 274 12,9 km/h (3 Bft)
26.10.2020 20:40 6,2 C 92 % 1010,1 hPa 0,0 mm W 271 9,7 km/h (2 Bft)
26.10.2020 20:45 6,1 C 92 % 1010,2 hPa 0,2 mm W-NW 284 12,9 km/h (3 Bft)
26.10.2020 20:50 6,1 C 92 % 1010,3 hPa 0,0 mm W 277 9,7 km/h (2 Bft)
26.10.2020 20:55 6,1 C 92 % 1010,4 hPa 0,0 mm W 281 12,9 km/h (3 Bft)
26.10.2020 21:00 6,0 C 92 % 1010,3 hPa 0,0 mm W 260 9,7 km/h (2 Bft)
26.10.2020 21:05 6,0 C 92 % 1010,5 hPa 0,0 mm W 277 11,3 km/h (2 Bft)
26.10.2020 21:10 5,9 C 92 % 1010,5 hPa 0,0 mm W 279 6,4 km/h (2 Bft)
26.10.2020 21:15 5,9 C 92 % 1010,7 hPa 0,2 mm W 273 8,0 km/h (2 Bft)
26.10.2020 21:20 5,9 C 92 % 1010,7 hPa 0,0 mm W 269 8,0 km/h (2 Bft)
26.10.2020 21:25 5,9 C 92 % 1010,7 hPa 0,0 mm W 271 6,4 km/h (2 Bft)
26.10.2020 21:30 5,9 C 92 % 1010,7 hPa 0,2 mm W 269 6,4 km/h (2 Bft)
26.10.2020 21:35 5,8 C 92 % 1010,8 hPa 0,0 mm W 275 9,7 km/h (2 Bft)
26.10.2020 21:40 5,8 C 92 % 1010,8 hPa 0,0 mm W 277 8,0 km/h (2 Bft)
26.10.2020 21:45 5,8 C 92 % 1010,8 hPa 0,0 mm W-NW 290 8,0 km/h (2 Bft)
26.10.2020 21:50 5,8 C 92 % 1010,9 hPa 0,0 mm W-NW 300 6,4 km/h (2 Bft)
26.10.2020 21:55 5,8 C 93 % 1010,9 hPa 0,0 mm W 275 8,0 km/h (2 Bft)
26.10.2020 22:00 5,7 C 93 % 1011,0 hPa 0,0 mm W 264 6,4 km/h (2 Bft)
26.10.2020 22:05 5,7 C 93 % 1011,0 hPa 0,2 mm W 281 8,0 km/h (2 Bft)
26.10.2020 22:10 5,7 C 92 % 1011,2 hPa 0,0 mm W 262 8,0 km/h (2 Bft)
26.10.2020 22:15 5,7 C 92 % 1011,2 hPa 0,0 mm W 268 4,8 km/h (1 Bft)
26.10.2020 22:20 5,6 C 92 % 1011,2 hPa 0,0 mm W 269 8,0 km/h (2 Bft)
26.10.2020 22:25 5,6 C 92 % 1011,2 hPa 0,0 mm W 269 11,3 km/h (2 Bft)
26.10.2020 22:30 5,5 C 92 % 1011,4 hPa 0,2 mm W 277 8,0 km/h (2 Bft)
26.10.2020 22:35 5,4 C 92 % 1011,2 hPa 0,0 mm W 272 9,7 km/h (2 Bft)
26.10.2020 22:40 5,4 C 93 % 1011,2 hPa 0,0 mm W 273 6,4 km/h (2 Bft)
26.10.2020 22:45 5,3 C 93 % 1011,3 hPa 0,0 mm W-SW 258 8,0 km/h (2 Bft)
26.10.2020 22:50 5,3 C 92 % 1011,3 hPa 0,0 mm W 276 6,4 km/h (2 Bft)
26.10.2020 22:55 5,3 C 92 % 1011,3 hPa 0,0 mm W 279 8,0 km/h (2 Bft)
26.10.2020 23:00 5,3 C 92 % 1011,3 hPa 0,0 mm W 264 6,4 km/h (2 Bft)
26.10.2020 23:05 5,3 C 92 % 1011,3 hPa 0,2 mm W 281 8,0 km/h (2 Bft)
26.10.2020 23:10 5,2 C 92 % 1011,5 hPa 0,0 mm W 273 8,0 km/h (2 Bft)
26.10.2020 23:15 5,2 C 92 % 1011,6 hPa 0,0 mm W 273 6,4 km/h (2 Bft)
26.10.2020 23:20 5,2 C 93 % 1011,4 hPa 0,0 mm W-NW 287 6,4 km/h (2 Bft)
26.10.2020 23:25 5,2 C 93 % 1011,5 hPa 0,0 mm W 279 6,4 km/h (2 Bft)
26.10.2020 23:30 5,2 C 93 % 1011,5 hPa 0,0 mm W 265 11,3 km/h (2 Bft)
26.10.2020 23:35 5,1 C 93 % 1011,6 hPa 0,0 mm W 265 9,7 km/h (2 Bft)
26.10.2020 23:40 5,1 C 93 % 1011,5 hPa 0,0 mm W 277 11,3 km/h (2 Bft)
26.10.2020 23:45 5,1 C 92 % 1011,6 hPa 0,0 mm W 259 11,3 km/h (2 Bft)
26.10.2020 23:50 5,0 C 92 % 1011,6 hPa 0,2 mm W 273 11,3 km/h (2 Bft)
26.10.2020 23:55 5,0 C 93 % 1011,6 hPa 0,0 mm W-NW 286 6,4 km/h (2 Bft)
_ Min-Zeit 23:50 12:20 08:45 - - - 01:30
Minimum _ 5,0 C 88 % 1002,5 hPa - - - 0,0 km/h (0 Bft)
_ Max-Zeit 10:40 01:20 23:15 05:55 - - 11:05
Maximum _ 11,4 C 94 % 1011,6 hPa 0,2 mm - - 30,6 km/h
W (5 Bft)
Durchschnitt _ 7,8 C 92 % 1006,4 hPa #4,2 mm W - 10,5 km/h (2 Bft)